Location: Basses Si�yes
(44.0835°N, 6.2037°E)
Time: 15:20:55
(UTC+00:00)

Daily predictions for brighter satellites

Satellite Brightness Start Highest point End
(mag) Time Altitude Azimuth Time Altitude Azimuth Time Altitude Azimuth
STARLINK-1068 4.4 17:39:58 10° WSW 17:43:58 49° NNW 17:48:01 10° NE
STARLINK-1061 3.9 17:41:36 10° SW 17:45:37 52° SE 17:49:39 10° ENE
CZ-4 R/B 1.5 17:41:35 10° SSE 17:45:42 61° ENE 17:49:47 10° N
Lacrosse 4 Rocket 4.2 17:45:43 10° WNW 17:47:32 12° NW 17:49:23 10° NNW
Cosmos 1633 Rocket 3.5 17:45:10 10° SSW 17:49:27 67° W 17:53:49 10° N
YAOGAN 1 2.7 17:45:41 10° SSE 17:49:54 54° ENE 17:54:08 10° N
STARLINK-1067 3.8 17:46:33 10° SW 17:50:36 57° SE 17:54:40 10° ENE
Cosmos 2263 4.4 17:45:20 10° SSW 17:51:07 83° WNW 17:56:55 10° NNE
Ariane Rocket 4.0 17:48:58 10° ESE 17:53:04 25° ENE 17:57:12 10° N
STARLINK-1058 3.7 17:51:28 10° SW 17:55:33 62° SE 17:59:38 10° ENE
NOSS 2-3 (C) 4.2 17:51:20 10° SW 17:55:37 62° NW 18:00:43 10° NNE
USA 116 4.1 17:53:41 10° NNE 17:57:54 57° ESE 18:02:36 10° S
Cosmos 1943 Rocket 3.5 17:53:53 10° SW 17:59:08 42° WNW 18:04:24 10° NNE
CSL-04 Debris 4.2 17:54:00 10° SSE 17:59:23 65° ENE 18:04:50 10° N
Cosmos 1933 Rocket 3.5 17:56:06 10° S 18:00:27 62° E 18:04:47 10° NNE
STARLINK-1043 3.7 17:56:25 10° SW 18:00:31 67° SE 18:04:38 10° ENE
Cosmos 2297 Rocket 3.9 17:59:00 10° N 18:02:02 14° NE 18:04:59 10° ENE
SKYMED 2 4.0 17:58:40 10° N 18:03:00 69° WNW 18:07:18 10° SSW
STARLINK-1065 3.6 18:01:11 10° SW 18:05:18 73° SE 18:09:27 10° ENE
Cosmos 1340 3.0 18:03:32 10° SSW 18:07:16 68° W 18:11:02 10° N
NOAA 11 4.2 18:02:27 10° SSE 18:07:53 84° ENE 18:13:21 10° NNW
Cosmos 1346 Rocket 2.8 18:04:17 10° S 18:08:16 87° WNW 18:12:14 10° N
STARLINK-1063 3.6 18:06:17 10° SW 18:10:25 79° SE 18:14:25 11° ENE
Cosmos 1464 Rocket 4.2 18:05:06 10° SSE 18:11:10 49° E 18:17:16 10° NNE
OE (NEXTSAT) 4.3 18:08:39 10° WNW 18:12:09 86° NNE 18:14:56 15° ESE
Cosmos 1937 Rocket 4.1 18:08:16 10° N 18:13:08 37° ENE 18:17:55 10° SE
STARLINK-1064 3.6 18:11:16 10° SW 18:15:24 86° SE 18:19:12 12° ENE
ADEOS Rocket 3.6 18:09:13 10° NNE 18:17:02 67° E 18:24:29 10° S
Meteor 1-20 Rocket 4.1 18:14:20 10° S 18:19:46 72° E 18:25:20 10° NNE
STARLINK-1041 3.6 18:16:14 10° SW 18:20:23 88° NW 18:23:59 14° NE
Cosmos 2227 Rocket 3.7 18:17:44 10° N 18:21:23 17° NE 18:23:26 14° ENE
DMSP B5D1-3 4.5 18:16:24 10° NNE 18:21:33 71° ESE 18:26:41 10° S
Cosmos 1656 Rocket 4.0 18:17:59 10° SSW 18:23:29 70° WNW 18:29:07 10° NNE
STARLINK-1038 3.6 18:21:12 10° WSW 18:25:20 82° NW 18:28:45 15° NE
H-2A R/B 2.7 18:25:05 10° SE 18:30:01 38° ENE 18:35:02 10° N
STARLINK-1046 3.7 18:26:12 10° WSW 18:30:20 76° NW 18:33:33 16° NE
Cosmos 2034 Rocket 4.1 18:27:47 10° SSE 18:33:42 51° E 18:39:38 10° NNE
STARLINK-1039 3.8 18:31:14 10° WSW 18:35:21 71° NNW 18:38:21 18° NE
Cosmos 220 Rocket 3.9 18:32:28 10° S 18:36:44 64° ESE 18:40:58 10° NNE
Meteor 1-18 Rocket 4.2 18:33:39 10° N 18:39:35 79° E 18:45:22 10° SSE
STARLINK-1045 3.9 18:36:13 10° WSW 18:40:19 66° NNW 18:43:07 20° NE
COSMOS 2487 3.5 18:37:04 10° NNW 18:40:24 46° WSW 18:43:42 10° S
STARLINK-43 3.2 18:41:15 10° NW 18:44:58 74° NNE 18:46:22 36° ESE
HJ-1C 3.3 18:41:46 10° S 18:45:03 84° WSW 18:48:23 10° NNW
STARLINK-1050 4.0 18:41:16 10° WSW 18:45:22 60° NNW 18:47:58 21° NE
Cosmos 468 Rocket 4.1 18:41:09 10° SSW 18:46:26 83° WNW 18:51:48 10° NNE
Lacrosse 5 rocket 3.0 18:42:59 10° NNW 18:46:43 24° NNE 18:48:11 20° NE
Timation 2 Rocket 4.1 18:39:57 10° NNW 18:46:54 82° ENE 18:53:45 10° SSE
Okean 1 3.2 18:43:37 10° N 18:47:38 88° W 18:51:36 10° S
Okean 1-7 3.1 18:44:22 10° N 18:48:42 78° W 18:53:03 10° S
Cosmos 2219 3.8 18:44:56 10° NNW 18:50:14 37° NE 18:52:15 28° E
STARLINK-1055 4.1 18:46:16 10° WSW 18:50:20 56° NNW 18:52:44 23° NE
Lacrosse 5 1.8 18:47:09 10° SW 18:52:14 84° SE 18:55:38 21° NE
NOSS 2-2 (E) 4.0 18:49:18 10° S 18:51:52 30° SE 18:51:52 30° SE
MOS 1 4.3 18:47:04 10° SSE 18:52:38 62° ENE 18:58:12 10° N
Cosmos 405 3.8 18:50:01 10° NNW 18:53:29 53° W 18:56:56 10° S
Cosmos 1092 Rocket 4.3 18:47:55 10° N 18:54:00 45° ENE 18:58:48 16° SE
STARLINK-1022 4.2 18:51:17 10° WSW 18:55:20 52° NNW 18:57:31 25° NE
Meteor 1-14 Rocket 4.2 18:51:22 10° S 18:56:54 86° W 19:02:31 10° N
Meteor 2-4 Rocket 3.8 18:52:11 10° N 18:58:03 58° ENE 19:03:42 11° SSE
Gbstr 26 Del rocket 3.6 18:55:38 10° W 18:59:38 53° NNW 19:02:07 25° NE
Cosmos 1814 Rocket 4.0 18:55:23 10° S 19:00:20 53° ESE 19:05:20 10° NNE
STARLINK-1042 4.3 18:56:19 10° WSW 19:00:21 49° NNW 19:02:20 26° NE
Cosmos 1602 4.4 18:59:49 10° SSW 19:03:37 56° W 19:07:26 10° N
USA 186 3.6 19:05:54 19° N 19:05:54 19° N 19:06:51 10° N
STARLINK-1056 4.4 19:01:20 10° W 19:05:20 46° NNW 19:07:07 28° NNE
Cosmos 44 Rocket 3.5 19:00:50 10° NW 19:05:34 67° WSW 19:08:48 20° SSE
Cosmos 1898 Rocket 4.1 19:01:03 10° NNW 19:06:08 58° WSW 19:11:13 10° S
Cosmos 841 Rocket 3.3 19:01:17 10° S 19:06:22 68° ESE 19:11:31 10° NNE
Cosmos 1763 Rocket 3.8 19:01:37 10° SSW 19:06:49 69° WNW 19:12:07 10° NNE
SJ 16-02 2.1 19:02:59 10° NNW 19:07:17 53° WSW 19:11:32 10° S
STARLINK-48 4.1 19:03:46 10° NW 19:07:28 39° NNE 19:07:38 39° NNE
NOSS 3-2 (A) 4.3 19:00:22 10° NNW 19:07:32 49° NE 19:10:56 32° E
ARGOS 3.1 19:04:37 16° SSE 19:08:59 69° ENE 19:14:23 10° N
Resurs 01 Rocket 3.4 19:11:23 18° NNE 19:11:23 18° NNE 19:12:59 10° NNE
Meteor 1-19 Rocket 4.4 19:04:34 10° NNW 19:10:19 74° W 19:15:52 10° S
Cosmos 2298 Rocket 4.3 19:06:04 10° N 19:11:14 48° ENE 19:12:02 44° E
STARLINK-26 4.2 19:09:27 10° NW 19:12:15 35° N 19:12:15 35° N
Cosmos 1869 Rocket 4.2 19:08:58 10° SSW 19:13:17 57° W 19:17:36 10° N
Cosmos 2208 Rocket 3.9 19:08:04 10° SSW 19:13:28 85° ESE 19:18:51 10° NNE
ARGOS Delta rocket 3.6 19:13:10 55° ESE 19:13:45 61° ENE 19:18:12 10° N
Meteor 1-11 Rocket 3.9 19:08:54 10° SSE 19:14:10 44° E 19:19:24 10° NNE
SPOT 3 Rocket 3.6 19:13:10 44° ESE 19:14:23 54° ENE 19:19:28 10° N
GPS 2-04 Rocket1 4.5 19:11:20 10° WSW 19:14:39 22° S 19:15:11 22° S
USA 102 4.2 19:17:28 69° SE 19:17:28 69° SE 19:20:13 25° SSW
CENTAUR R/B 3.7 19:12:55 10° NNW 19:20:10 39° NE 19:22:39 32° ENE
STARLINK-80 3.7 19:19:50 10° NW 19:23:11 60° NNW 19:23:11 60° NNW
CZ-2C R/B 3.2 19:18:39 12° SSE 19:24:02 90° ESE 19:29:44 10° NNW
Meteor 2-9 4.5 19:21:44 10° S 19:27:07 89° ESE 19:32:31 10° N
Cosmos 1570 Rocket 4.4 19:22:40 10° SSW 19:27:51 62° WNW 19:33:06 10° NNE
Cosmos 2150 Rocket 4.0 19:22:39 10° NNW 19:28:02 61° ENE 19:28:23 60° E
SJ-6B 3.0 19:29:19 64° NW 19:29:19 64° NW 19:32:39 10° NNW
Ariane Rocket 4.1 19:26:55 10° S 19:31:46 44° W 19:36:40 10° NNW
Cosmos 540 Rocket 3.4 19:27:48 10° SSW 19:32:56 82° WNW 19:38:07 10° NNE
Cosmos 1125 Rocket 4.4 19:28:10 10° N 19:32:01 35° NNE 19:32:01 35° NNE
Okean 3 3.5 19:29:06 10° NNW 19:33:18 73° W 19:33:29 72° WSW
ATLAS 3B R/B 3.7 19:29:15 10° NNW 19:34:55 28° NE 19:35:31 27° NE
Cosmos 1627 Rocket 4.3 19:33:23 10° N 19:39:36 76° E 19:41:01 54° SSE
SL-08 RB Rocket 3.7 19:42:33 73° NW 19:42:33 73° NW 19:46:43 10° NNW
Meteor 1-13 Rocket 4.2 19:37:09 10° N 19:43:02 87° WSW 19:44:37 50° S
Cosmos 2297 Rocket 2.1 19:41:28 10° NNW 19:46:50 69° NE 19:46:50 69° NE
CZ-2C R/B 3.9 19:43:32 10° N 19:48:12 72° WNW 19:52:55 10° SSW
ATLAS 2AS CENTAUR R/B 3.7 19:49:08 10° S 19:53:45 35° SSE 19:53:45 35° SSE
Cosmos 2026 Rocket 3.9 19:51:22 10° N 19:57:33 85° W 19:58:21 69° S
Cosmos 2227 Rocket 2.4 20:00:35 10° NNW 20:05:17 62° NNW 20:05:17 62° NNW
USA 238 DEB 3.7 20:01:23 10° NW 20:08:38 84° SW 20:09:21 75° SSE
USA 238 3.7 20:01:29 10° NW 20:08:44 85° SW 20:09:24 75° SSE
H-2A R/B 3.8 20:04:42 10° SSW 20:09:27 31° W 20:14:18 10° NNW
Lacrosse 5 rocket 3.6 20:21:54 10° NW 20:23:51 25° NW 20:23:51 25° NW
Cosmos 2219 4.4 20:29:08 10° NW 20:34:13 37° WSW 20:34:13 37° WSW
Lacrosse 5 3.7 20:31:19 10° W 20:34:52 27° NW 20:34:52 27° NW
USA 234 4.1 20:42:41 40° N 20:42:41 40° N 20:47:38 10° NW
Cosmos 2263 Rocket 4.5 20:40:13 10° N 20:41:27 15° N 20:41:27 15° N
Resurs 01 Rocket 4.4 20:48:57 15° NW 20:48:57 15° NW 20:49:47 10° NNW
NOSS 3-2 (C) 4.5 20:55:08 10° NW 21:01:19 58° WNW 21:01:19 58° WNW
CENTAUR R/B 3.6 21:03:28 10° NW 21:09:51 58° WNW 21:09:51 58° WNW
ATLAS 3B R/B 4.2 21:19:34 10° NW 21:22:47 31° NW 21:22:47 31° NW
